Flag for Germany Weather past 2 weeks in Kaiserslautern, Rhineland-Palatinate, Germany

Now
59 °F

Overcast.


Feels Like: 58 °F
Forecast: 50 / 63 °F
Wind: 6 mph from West

Location: Ramstein

Current Time: Aug 31, 2014 at 8:44:50 AM

Latest Report: Aug 31, 2014 at 7:58 AM


Visibility: N/A

Pressure: 29.98 "Hg

Humidity: 92%

Dew point: 56 °F

Location of KaiserslauternLocation

Historic Weather in Kaiserslautern — Graph

°F

Kaiserslautern temperature yesterday

Maximum temperature yesterday: 72 °F (at 2:58 PM)
Minimum temperature yesterday: 48 °F (at 5:58 AM)
Average temperature yesterday: 60 °F

Past Weeks' High & Low Weather Summary

 TemperatureHumidityPressure
High75 °F (Aug 29, 4:58 PM)100% (Aug 19, 2:58 AM)30.17 "Hg (Aug 19, 2:58 AM)
Low37 °F (Aug 22, 3:58 AM)35% (Aug 21, 5:58 PM)29.65 "Hg (Aug 26, 5:58 AM)
Average58 °F77%29.99 "Hg
* Reported Aug 16 7:58 AM — Aug 31 7:00 AM, Kaiserslautern, Weather by CustomWeather, © 2014

Note: Actual official high and low records may vary slightly from our data, if they occured in-between our weather recording intervals... More about our weather records

Advertising

Kaiserslautern weather history for previous 24 hours

 ConditionsComfort  
Time TempWeatherWind HumidityBarometerVisibility
7:00 AM
Aug 31
61 °FLight rain. Passing clouds.7 mph88%29.98 "HgN/A
6:58 AM61 °FPartly cloudy.6 mph88%29.97 "HgN/A
5:58 AM60 °FMostly cloudy.1 mph93%29.97 "HgN/A
4:58 AM61 °FMostly cloudy.3 mph88%29.97 "HgN/A
3:58 AM60 °FPassing clouds.No wind92%29.99 "HgN/A
3:02 AM61 °FHeavy rain. Fog.2 mph88%30.01 "Hg4 mi
2:58 AM61 °FLight rain. Fog.6 mph88%30.00 "Hg5 mi
1:58 AM63 °FPartly cloudy.3 mph77%30.01 "HgN/A
12:58 AM61 °FPassing clouds.2 mph83%30.02 "HgN/A
11:58 PM
Aug 30
63 °FPassing clouds.2 mph73%30.03 "HgN/A
10:58 PM59 °FClear.No wind91%30.06 "HgN/A
9:58 PM60 °FClear.No wind91%30.06 "HgN/A
8:58 PM61 °FPassing clouds.No wind88%30.06 "HgN/A
7:58 PM66 °FSunny.2 mph68%30.05 "HgN/A
6:58 PM68 °FPassing clouds.3 mph60%30.05 "HgN/A
5:58 PM69 °FScattered clouds.6 mph56%30.06 "HgN/A
4:58 PM72 °FScattered clouds.13 mph50%30.07 "HgN/A
3:58 PM70 °FPartly sunny.9 mph53%30.07 "HgN/A
2:58 PM72 °FBroken clouds.10 mph50%30.08 "HgN/A
1:58 PM71 °FPartly sunny.10 mph51%30.08 "HgN/A
12:58 PM69 °FPassing clouds.6 mph53%30.09 "HgN/A
11:58 AM70 °FPassing clouds.6 mph53%30.11 "HgN/A
10:58 AM66 °FSunny.6 mph68%30.11 "HgN/A
9:58 AM59 °FScattered clouds.1 mph88%30.12 "HgN/A
8:58 AM56 °FScattered clouds.No wind91%30.11 "HgN/A
Weather by CustomWeather, © 2014

See weather overviewHow to use our weather pages